Hourly Data Report for November 19, 2019

OTTAWA INTL A
ONTARIO
Current Station Operator: NAVCAN

45°19'00.000" N
75°40'00.000" W
114.90 m
6106001
71628
YOW

Download Data

Hourly Data (November 2019)
Hourly Data Report for November 19, 2019
TIME Temp Definition
°C
Dew Point Definition
°C
Rel Hum Definition
%
Wind Dir Definition
10's deg

Wind Spd Definition
km/h
Visibility Definition
km
Stn Press Definition
kPa
Hmdx Definition


Wind Chill Definition


Weather Definition


00:00 -3.3 -8.5 68 33 8 24.1 99.55   -7 LegendNANA
01:00 -2.2 -7.1 69 34 12 24.1 99.51   -6 Cloudy
02:00 -3.4 -6.8 78 28 5 24.1 99.52   -5 LegendNANA
03:00 -3.5 -7.5 74 24 3 24.1 99.48   -5 LegendNANA
04:00 -3.4 -6.5 79 0 1 24.1 99.43   -4 Cloudy
05:00 -3.5 -6.7 79 20 5 24.1 99.48   -6 LegendNANA
06:00 -4.1 -6.2 85 27 8 24.1 99.48   -8 LegendNANA
07:00 -5.3 -7.1 87 30 7 24.1 99.50   -9 Mostly Cloudy
08:00 -4.8 -6.9 85 36 1 24.1 99.55   -5 LegendNANA
09:00 -4.8 -6.5 88 27 4 24.1 99.59   -7 LegendNANA
10:00 -1.2 -4.9 76 32 3 24.1 99.60   -2 Mainly Clear
11:00 -0.2 -6.6 62 2 4 24.1 99.60   -1 LegendNANA
12:00 0.1 -6.0 64 36 1 24.1 99.58     LegendNANA
13:00 0.8 -6.5 58 36 2 24.1 99.60     Mostly Cloudy
14:00 1.3 -5.5 61 25 5 24.1 99.61     LegendNANA
15:00 1.5 -5.0 62 17 7 24.1 99.63     LegendNANA
16:00 1.1 -5.5 61 19 8 24.1 99.70     Mostly Cloudy
17:00 0.6 -4.7 67 16 6 24.1 99.76     LegendNANA
18:00 0.3 -4.8 69 19 8 24.1 99.85     LegendNANA
19:00 0.2 -4.2 72 19 8 24.1 99.90     Mostly Cloudy
20:00 0.1 -4.3 72 23 5 24.1 99.93     LegendNANA
21:00 0.5 -4.2 71 30 7 24.1 99.93     LegendNANA
22:00 -0.3 -3.6 79 27 8 24.1 99.95   -3 Mostly Cloudy
23:00 -0.1 -3.3 79 30 7 24.1 99.99   -3 LegendNANA

Notes on Data Quality.

Legend

  • E = Estimated
  • M = Missing
  • NA = Not Available*
  • [empty] = Indicates an unobserved value
Date modified: